DW4381 Weather Reports


Display with metric or nautical units.
time (UTC)temp
F
wind
direction
speed
MPH
gust
MPH
rain 1hr
in
rain 24hr
in
rain mn
in
humidity
%
barometer
mb
20210305190125 44 10 2.0 7.0 0.00 0.02 0.00 30 1026.6
20210305185852 44 33 0.0 3.0 0.00 0.02 0.00 30 1026.6
20210305185525 44 10 0.0 7.0 0.00 0.02 0.00 30 1026.6
20210305184628 44 10 0.0 8.0 0.00 0.02 0.00 30 1026.6
20210305184126 44 10 1.0 4.0 0.00 0.02 0.00 31 1026.7
20210305183625 43 10 0.0 2.0 0.00 0.02 0.00 32 1026.6
20210305183130 43 10 0.0 0.0 0.00 0.02 0.00 30 1026.7
20210305182756 43 10 0.0 5.0 0.00 0.02 0.00 31 1026.6
20210305182337 42 41 0.0 3.0 0.01 0.02 0.00 31 1026.5
20210305181628 42 47 0.0 0.0 0.01 0.02 0.00 32 1026.5
20210305181125 42 40 0.0 5.0 0.01 0.02 0.00 32 1026.5
20210305180625 42 39 0.0 0.0 0.01 0.02 0.00 33 1026.4
20210305180157 41 10 0.0 5.0 0.01 0.02 0.00 32 1026.4
20210305175955 41 10 0.0 6.0 0.01 0.02 0.00 33 1026.4
20210305175806 41 10 0.0 5.0 0.01 0.02 0.00 35 1026.4
20210305174627 41 73 0.0 7.0 0.02 0.02 0.00 35 1026.4
20210305174131 40 15 0.0 5.0 0.02 0.02 0.00 36 1026.4
20210305173625 40 347 0.0 1.0 0.02 0.02 0.00 34 1026.4
20210305173127 40 346 0.0 6.0 0.02 0.02 0.00 35 1026.4
20210305172905 40 347 0.0 0.0 0.02 0.02 0.00 35 1026.5
20210305172455 40 347 0.0 0.0 0.01 0.01 0.00 34 1026.4
20210305171626 40 347 0.0 4.0 0.01 0.01 0.00 35 1026.4
20210305171132 39 347 4.0 5.0 0.01 0.01 0.00 36 1026.4
20210305170631 39 347 0.0 0.0 0.01 0.01 0.00 36 1026.4
20210305170151 39 347 0.0 0.0 0.01 0.01 0.00 36 1026.3
20210305170011 38 347 0.0 0.0 0.01 0.01 0.00 38 1026.3
20210305165732 38 347 0.0 0.0 0.01 0.01 0.00 40 1026.2
20210305164626 38 347 0.0 2.0 0.00 0.00 0.00 42 1026.1
20210305164320 37 10 0.0 0.0 0.00 0.00 0.00 41 1025.9
20210305164125 37 10 0.0 0.0 0.00 0.00 0.00 44 1026.0
20210305163853 36 10 0.0 0.0 0.00 0.00 0.00 42 1025.9
20210305163409 36 10 0.0 0.0 0.00 0.00 0.00 46 1026.0
20210305162946 36 10 0.0 0.0 0.00 0.00 0.00 42 1025.9
20210305161631 35 10 0.0 0.0 0.00 0.00 0.00 43 1025.7
20210305161127 35 10 0.0 0.0 0.00 0.00 0.00 49 1025.7
20210305160638 34 10 0.0 0.0 0.00 0.00 0.00 50 1025.7
20210305160126 34 10 0.0 0.0 0.00 0.00 0.00 50 1025.6
20210305155815 34 10 0.0 0.0 0.00 0.00 0.00 50 1025.5
20210305155343 34 10 0.0 0.0 0.00 0.00 0.00 46 1025.5
20210305154626 34 10 0.0 0.0 0.00 0.00 0.00 52 1025.5
20210305154126 33 10 0.0 0.0 0.00 0.00 0.00 51 1025.4
20210305153631 33 10 0.0 1.0 0.00 0.00 0.00 51 1025.4
20210305153215 29 257 0.0 1.0 0.00 0.00 0.00 69 1025.4
20210305153050 28 261 0.0 0.0 0.00 0.00 0.00 76 1025.3
20210305152810 26 261 0.0 0.0 0.00 0.00 0.00 76 1025.3
20210305151628 26 261 0.0 0.0 0.00 0.00 0.00 54 1025.2
20210305151125 31 10 0.0 0.0 0.00 0.00 0.00 54 1025.2
20210305150628 31 10 0.0 0.0 0.00 0.00 0.00 53 1025.1
20210305150148 30 10 0.0 4.0 0.00 0.00 0.00 51 1025.0
20210305145914 30 10 0.0 5.0 0.00 0.00 0.00 53 1024.9
20210305145710 29 10 0.0 3.0 0.00 0.00 0.00 55 1025.0
20210305144644 28 10 0.0 0.0 0.00 0.00 0.00 55 1024.9
20210305144138 28 185 0.0 2.0 0.00 0.00 0.00 56 1025.0
20210305143632 28 10 1.0 6.0 0.00 0.00 0.00 55 1024.9
20210305143147 27 10 0.0 0.0 0.00 0.00 0.00 56 1025.0
20210305142818 27 10 0.0 0.0 0.00 0.00 0.00 56 1024.9
20210305142349 27 10 0.0 0.0 0.00 0.00 0.00 56 1024.8
20210305141631 27 10 0.0 0.0 0.00 0.00 0.00 56 1024.8
20210305141145 27 10 0.0 0.0 0.00 0.00 0.00 56 1024.7
20210305140625 27 10 0.0 0.0 0.00 0.00 0.00 57 1024.7
20210305140351 27 10 0.0 0.0 0.00 0.00 0.00 57 1024.6
20210305140113 26 10 0.0 0.0 0.00 0.00 0.00 57 1024.6
20210305135838 26 10 0.0 0.0 0.00 0.00 0.00 58 1024.6
20210305134643 26 10 0.0 0.0 0.00 0.00 0.00 58 1024.4
20210305134136 26 10 0.0 0.0 0.00 0.00 0.00 59 1024.5
20210305133627 25 10 0.0 0.0 0.00 0.00 0.00 59 1024.4
20210305133131 25 10 0.0 0.0 0.00 0.00 0.00 60 1024.4
20210305132902 25 10 0.0 0.0 0.00 0.00 0.00 61 1024.3
20210305132653 25 10 0.0 0.0 0.00 0.00 0.00 61 1024.3
20210305131627 25 10 0.0 0.0 0.00 0.00 0.00 60 1024.2
20210305131127 24 10 0.0 0.0 0.00 0.00 0.00 61 1024.1
20210305130640 24 10 0.0 3.0 0.00 0.00 0.00 61 1024.0
20210305130335 24 10 3.0 5.0 0.00 0.00 0.00 62 1024.0
20210305130039 24 10 3.0 6.0 0.00 0.00 0.00 62 1024.0
20210305125635 24 184 5.0 6.0 0.00 0.00 0.00 63 1024.1
20210305124630 24 10 4.0 8.0 0.00 0.00 0.00 63 1024.0
20210305124125 24 10 5.0 9.0 0.00 0.00 0.00 64 1023.8
20210305123638 24 10 3.0 7.0 0.00 0.00 0.00 65 1023.7
20210305123428 24 10 5.0 7.0 0.00 0.00 0.00 66 1023.6
20210305123212 24 10 2.0 7.0 0.00 0.00 0.00 66 1023.5
20210305122908 23 173 5.0 7.0 0.00 0.00 0.00 66 1023.5
20210305121634 23 10 1.0 8.0 0.00 0.00 0.00 67 1023.4
20210305121128 23 10 3.0 5.0 0.00 0.00 0.00 66 1023.4
20210305120624 24 10 2.0 4.0 0.00 0.00 0.00 66 1023.3
20210305120125 24 10 0.0 0.0 0.00 0.00 0.00 66 1023.3
20210305115758 24 10 0.0 3.0 0.00 0.00 0.00 66 1023.2
20210305114626 24 10 2.0 4.0 0.00 0.00 0.00 66 1023.3
20210305114135 24 10 0.0 0.0 0.00 0.00 0.00 65 1023.2
20210305113645 24 10 0.0 0.0 0.00 0.00 0.00 65 1023.3
20210305113205 24 10 0.0 0.0 0.00 0.00 0.00 65 1023.2
20210305112859 24 10 0.0 0.0 0.00 0.00 0.00 65 1023.2
20210305112521 24 10 0.0 0.0 0.00 0.00 0.00 65 1023.2
20210305111636 24 10 0.0 0.0 0.00 0.00 0.00 65 1023.2
20210305111126 24 10 0.0 0.0 0.00 0.00 0.00 65 1023.2
20210305110626 24 10 0.0 0.0 0.00 0.00 0.00 65 1023.2
20210305110139 24 10 0.0 0.0 0.00 0.00 0.00 65 1023.2
20210305105953 23 10 0.0 0.0 0.00 0.00 0.00 65 1023.1
20210305105637 23 10 0.0 0.0 0.00 0.00 0.00 66 1022.9
20210305104626 23 10 0.0 0.0 0.00 0.00 0.00 66 1022.9
20210305104126 23 10 0.0 0.0 0.00 0.00 0.00 66 1022.7
20210305103624 23 10 0.0 0.0 0.00 0.00 0.00 66 1022.8
20210305103133 23 10 0.0 0.0 0.00 0.00 0.00 66 1022.7
20210305102800 23 10 0.0 0.0 0.00 0.00 0.00 66 1022.7
20210305102331 23 10 0.0 0.0 0.00 0.00 0.00 66 1022.7
20210305101625 23 10 0.0 0.0 0.00 0.00 0.00 67 1022.6
20210305101133 23 10 0.0 0.0 0.00 0.00 0.00 67 1022.5
20210305100634 23 10 0.0 0.0 0.00 0.00 0.00 68 1022.6
20210305100212 23 10 0.0 0.0 0.00 0.00 0.00 68 1022.5
20210305095932 23 10 0.0 0.0 0.00 0.00 0.00 69 1022.5
20210305095551 23 10 0.0 0.0 0.00 0.00 0.00 68 1022.4
20210305094626 23 10 0.0 0.0 0.00 0.00 0.00 69 1022.3
20210305094129 23 10 0.0 0.0 0.00 0.00 0.00 70 1022.3
20210305093628 23 10 0.0 0.0 0.00 0.00 0.00 70 1022.2
20210305093124 23 10 0.0 0.0 0.00 0.00 0.00 71 1022.1
20210305092827 23 10 0.0 0.0 0.00 0.00 0.00 71 1022.1
20210305092549 23 10 0.0 0.0 0.00 0.00 0.00 71 1022.0
20210305091627 23 10 0.0 0.0 0.00 0.00 0.00 71 1021.9
20210305091125 23 10 0.0 0.0 0.00 0.00 0.00 71 1021.8
20210305090626 23 10 0.0 0.0 0.00 0.00 0.00 71 1021.8
20210305090124 23 10 0.0 0.0 0.00 0.00 0.00 71 1021.6
20210305085803 24 10 0.0 0.0 0.00 0.00 0.00 71 1021.6
20210305085359 24 10 0.0 0.0 0.00 0.00 0.00 71 1021.5
20210305084628 24 10 0.0 3.0 0.00 0.00 0.00 71 1021.5
20210305084125 24 10 0.0 5.0 0.00 0.00 0.00 71 1021.4
20210305083625 24 10 3.0 5.0 0.00 0.00 0.00 72 1021.3
20210305083139 24 10 0.0 0.0 0.00 0.00 0.00 72 1021.4
20210305083044 24 10 0.0 0.0 0.00 0.00 0.00 72 1021.3
20210305082647 24 10 0.0 0.0 0.00 0.00 0.00 72 1021.2
20210305081624 24 10 0.0 0.0 0.00 0.00 0.00 71 1021.2
20210305081124 25 10 0.0 0.0 0.00 0.00 0.00 70 1021.2
20210305080624 25 10 0.0 0.0 0.00 0.00 0.00 70 1021.1
20210305080126 25 10 0.0 0.0 0.00 0.00 0.00 69 1020.9
20210305075938 26 10 0.0 6.0 0.00 0.00 0.00 69 1020.9
20210305075806 26 10 0.0 3.0 0.00 0.00 0.00 68 1020.8
20210305074625 27 10 0.0 4.0 0.00 0.00 0.00 66 1020.8
20210305074125 27 10 6.0 12.0 0.00 0.00 0.00 64 1020.7
20210305073627 27 10 6.0 15.0 0.00 0.00 0.00 64 1020.7
20210305073126 27 10 5.0 16.0 0.00 0.00 0.00 64 1020.5
20210305072839 27 10 4.0 12.0 0.00 0.00 0.00 64 1020.3
20210305072446 27 337 10.0 13.0 0.00 0.00 0.00 65 1020.3
20210305071624 27 10 6.0 8.0 0.00 0.00 0.00 66 1020.2
20210305071137 27 10 2.0 8.0 0.00 0.00 0.00 66 1020.1
20210305070625 27 10 5.0 7.0 0.00 0.00 0.00 66 1020.2
20210305070207 27 10 3.0 9.0 0.00 0.00 0.00 67 1020.0
20210305065855 27 342 0.0 6.0 0.00 0.00 0.00 66 1020.0
20210305065417 27 10 6.0 9.0 0.00 0.00 0.00 65 1019.9
20210305064625 27 10 5.0 8.0 0.00 0.00 0.00 66 1020.0
20210305064125 28 10 4.0 12.0 0.00 0.00 0.00 65 1020.1
20210305063628 28 10 6.0 15.0 0.00 0.00 0.00 65 1020.1
20210305063202 28 10 7.0 15.0 0.00 0.00 0.00 66 1020.0
20210305063028 28 10 13.0 13.0 0.00 0.00 0.00 67 1020.0
20210305062743 28 10 7.0 11.0 0.00 0.00 0.00 68 1020.2
20210305061625 28 10 5.0 14.0 0.00 0.00 0.00 68 1020.0
20210305061144 28 10 8.0 15.0 0.00 0.00 0.00 69 1020.0
20210305060630 28 10 10.0 16.0 0.00 0.00 0.00 70 1019.9
20210305060126 28 10 10.0 16.0 0.00 0.00 0.00 70 1019.9
20210305055903 27 10 13.0 16.0 0.00 0.00 0.00 72 1019.8
20210305055443 27 10 8.0 16.0 0.00 0.00 0.00 73 1019.9
20210305054624 27 10 11.0 13.0 0.00 0.00 0.00 73 1020.0
20210305054129 27 10 9.0 17.0 0.00 0.00 0.00 75 1020.0
20210305053659 27 10 12.0 16.0 0.00 0.00 0.00 76 1019.9
20210305053124 27 10 4.0 17.0 0.00 0.00 0.00 76 1019.8
20210305052832 27 10 6.0 16.0 0.00 0.00 0.00 77 1019.8
20210305052343 27 10 9.0 15.0 0.00 0.00 0.00 78 1019.8
20210305051626 26 10 11.0 17.0 0.00 0.00 0.00 79 1019.7
20210305051124 26 10 15.0 18.0 0.00 0.00 0.00 80 1019.6
20210305050624 26 10 9.0 17.0 0.00 0.00 0.00 81 1019.6
20210305050124 26 10 10.0 17.0 0.00 0.00 0.00 82 1019.6
20210305045838 26 333 7.0 16.0 0.00 0.00 0.00 82 1019.6
20210305045510 26 10 9.0 16.0 0.00 0.00 0.00 82 1019.6
20210305044626 26 10 5.0 16.0 0.00 0.00 0.00 82 1019.6
20210305044125 26 10 16.0 16.0 0.00 0.00 0.00 82 1019.6
20210305043625 26 10 9.0 16.0 0.00 0.00 0.00 82 1019.4
20210305043141 26 10 10.0 21.0 0.00 0.00 0.00 82 1019.4
20210305042948 26 10 17.0 18.0 0.00 0.00 0.00 83 1019.3
20210305042531 26 339 10.0 17.0 0.00 0.00 0.00 84 1019.1
20210305041637 26 10 10.0 18.0 0.00 0.00 0.00 85 1018.9
20210305041124 26 10 10.0 17.0 0.00 0.00 0.00 85 1018.9
20210305040626 26 10 4.0 15.0 0.00 0.00 0.00 85 1018.7
20210305040400 26 10 9.0 17.0 0.00 0.00 0.00 86 1018.5
20210305040142 26 10 8.0 17.0 0.00 0.00 0.00 86 1018.5
20210305035945 26 10 11.0 16.0 0.00 0.00 0.00 87 1018.4
20210305034659 26 10 9.0 15.0 0.00 0.00 0.00 87 1018.4
20210305034127 26 10 9.0 19.0 0.00 0.00 0.00 87 1018.4
20210305033625 26 10 17.0 19.0 0.00 0.00 0.00 87 1018.4
20210305033125 26 10 13.0 19.0 0.00 0.00 0.00 87 1018.3
20210305032745 26 10 20.0 20.0 0.00 0.00 0.00 88 1018.3
20210305032244 25 10 10.0 20.0 0.00 0.00 0.00 88 1018.3
20210305031629 25 10 15.0 23.0 0.00 0.00 0.00 88 1018.2
20210305031136 25 10 9.0 17.0 0.00 0.00 0.00 89 1018.1
20210305030624 25 10 10.0 21.0 0.00 0.00 0.00 89 1018.0
20210305030130 25 10 11.0 18.0 0.00 0.00 0.00 89 1017.9
20210305025949 25 10 8.0 18.0 0.00 0.00 0.00 89 1018.0
20210305025605 25 10 8.0 20.0 0.00 0.00 0.00 89 1018.0
20210305024625 25 10 16.0 17.0 0.00 0.00 0.00 89 1017.9
20210305024124 25 10 9.0 19.0 0.00 0.00 0.00 89 1017.8
20210305023624 25 10 9.0 21.0 0.00 0.00 0.00 89 1017.9
20210305023125 25 10 7.0 18.0 0.00 0.00 0.00 88 1017.8
20210305022915 25 10 16.0 19.0 0.00 0.00 0.00 88 1017.7
20210305022439 25 10 11.0 18.0 0.00 0.00 0.00 88 1017.7
20210305021655 25 10 12.0 22.0 0.00 0.00 0.00 88 1017.5
20210305021126 25 353 10.0 18.0 0.00 0.00 0.00 88 1017.3
20210305020624 25 10 11.0 19.0 0.00 0.00 0.00 88 1017.2
20210305020155 25 10 9.0 20.0 0.00 0.00 0.00 88 1017.0
20210305015920 25 10 11.0 23.0 0.00 0.00 0.00 88 1016.9
20210305015404 25 10 18.0 20.0 0.00 0.00 0.00 88 1016.7
20210305014628 25 10 12.0 21.0 0.00 0.00 0.00 88 1016.5
20210305014126 25 10 10.0 25.0 0.00 0.00 0.00 88 1016.4
20210305013624 25 10 17.0 26.0 0.00 0.00 0.00 88 1016.3
20210305013227 25 10 15.0 27.0 0.00 0.00 0.00 88 1016.1
20210305012923 25 10 16.0 22.0 0.00 0.00 0.00 88 1016.0
20210305012607 25 10 5.0 23.0 0.00 0.00 0.00 89 1016.0
20210305011626 25 10 13.0 23.0 0.00 0.00 0.00 89 1015.8
20210305011124 25 10 16.0 21.0 0.00 0.00 0.00 89 1015.8
20210305010627 25 10 8.0 23.0 0.00 0.00 0.00 89 1015.6
20210305010125 25 10 15.0 24.0 0.00 0.00 0.00 88 1015.4
20210305005850 25 10 6.0 24.0 0.00 0.00 0.00 89 1015.4
20210305005601 25 10 11.0 25.0 0.00 0.00 0.00 89 1015.2
20210305004631 25 10 11.0 22.0 0.00 0.00 0.00 89 1015.2
20210305004124 25 10 15.0 18.0 0.00 0.00 0.00 89 1015.2
20210305003625 25 10 12.0 20.0 0.00 0.00 0.00 89 1015.2
20210305003130 25 10 11.0 19.0 0.00 0.00 0.00 89 1015.1
20210305002837 25 10 10.0 21.0 0.00 0.00 0.00 89 1015.1
20210305002445 26 10 5.0 21.0 0.00 0.00 0.00 89 1015.0
20210305001629 26 347 13.0 19.0 0.00 0.00 0.00 89 1014.8
20210305001129 26 10 12.0 18.0 0.00 0.00 0.00 88 1014.8
20210305000735 26 10 6.0 21.0 0.00 0.00 0.00 88 1014.6
20210305000139 26 10 16.0 19.0 0.00 0.00 0.00 88 1014.4
20210305000107 26 10 12.0 19.0 0.00 0.00 0.00 88 1014.3
20210304235728 26 10 8.0 17.0 0.00 0.00 0.00 88 1014.3
20210304234627 26 326 8.0 17.0 0.00 0.00 0.00 88 1014.3
20210304234128 26 10 10.0 21.0 0.00 0.00 0.00 88 1014.3
20210304233626 26 10 10.0 18.0 0.00 0.00 0.00 88 1014.2
20210304233231 26 10 10.0 18.0 0.00 0.00 0.00 88 1014.2
20210304233050 26 10 4.0 23.0 0.00 0.00 0.00 88 1013.9
20210304232720 26 10 5.0 18.0 0.00 0.00 0.00 89 1013.9
20210304231634 26 10 14.0 23.0 0.00 0.00 0.00 88 1013.7
20210304231124 26 10 14.0 23.0 0.00 0.00 0.00 88 1013.6
20210304230628 26 10 9.0 16.0 0.00 0.00 0.00 88 1013.4
20210304230215 26 10 14.0 19.0 0.00 0.00 0.00 88 1013.2
20210304230034 26 345 16.0 19.0 0.00 0.00 0.00 88 1013.2
20210304225527 26 10 19.0 19.0 0.00 0.00 0.00 88 1013.1
20210304224631 26 10 9.0 15.0 0.00 0.00 0.00 88 1012.9
20210304224124 26 341 5.0 17.0 0.00 0.00 0.00 88 1012.8
20210304223624 26 10 5.0 15.0 0.00 0.00 0.00 87 1012.7
20210304223241 26 10 4.0 13.0 0.00 0.00 0.00 87 1012.6
20210304222928 26 10 6.0 9.0 0.00 0.00 0.00 87 1012.4
20210304222428 26 10 8.0 11.0 0.00 0.00 0.00 87 1012.4
20210304221634 26 10 3.0 10.0 0.00 0.00 0.00 87 1012.2
20210304221129 26 10 3.0 11.0 0.00 0.00 0.00 87 1012.1
20210304220628 26 10 4.0 12.0 0.00 0.00 0.00 87 1012.0
20210304220239 26 10 8.0 13.0 0.00 0.00 0.00 87 1011.8
20210304220109 26 10 6.0 12.0 0.00 0.00 0.00 87 1011.6
20210304215854 26 10 2.0 13.0 0.00 0.00 0.00 87 1011.5
20210304214633 26 10 5.0 10.0 0.00 0.00 0.00 87 1011.5
20210304214138 26 10 6.0 10.0 0.00 0.00 0.00 87 1011.4
20210304213637 26 10 5.0 14.0 0.00 0.00 0.00 87 1011.3
20210304213156 26 10 9.0 15.0 0.00 0.00 0.00 87 1011.2
20210304212906 26 10 8.0 15.0 0.00 0.00 0.00 87 1011.2
20210304212450 26 10 5.0 16.0 0.00 0.00 0.00 87 1011.1
20210304211624 26 10 3.0 14.0 0.00 0.00 0.00 87 1011.0
20210304211125 26 10 11.0 17.0 0.00 0.00 0.00 87 1010.9
20210304210625 26 10 5.0 16.0 0.00 0.00 0.00 87 1010.7
20210304210131 26 10 9.0 13.0 0.00 0.00 0.00 87 1010.4
20210304205919 26 10 6.0 24.0 0.00 0.00 0.00 86 1010.4
20210304205755 26 10 9.0 24.0 0.00 0.00 0.00 86 1010.3
20210304204625 26 10 5.0 19.0 0.00 0.00 0.00 86 1010.0
20210304204127 27 337 12.0 24.0 0.00 0.00 0.00 85 1010.1
20210304203740 27 10 19.0 19.0 0.00 0.00 0.00 85 1010.0
20210304203454 28 10 11.0 19.0 0.00 0.00 0.00 84 1010.1
20210304203210 28 10 10.0 19.0 0.00 0.00 0.00 84 1010.1
20210304202914 29 10 8.0 22.0 0.00 0.00 0.00 84 1009.9
20210304201634 29 10 8.0 18.0 0.00 0.00 0.00 83 1009.8
20210304201126 29 10 5.0 16.0 0.00 0.00 0.00 83 1009.7
20210304200631 29 10 11.0 15.0 0.00 0.00 0.00 82 1009.8
20210304200331 29 10 11.0 15.0 0.00 0.00 0.00 81 1009.7
20210304200110 29 10 8.0 14.0 0.00 0.00 0.00 79 1009.8
20210304195638 29 10 10.0 16.0 0.00 0.00 0.00 77 1009.9
20210304194639 29 10 11.0 14.0 0.00 0.00 0.00 76 1009.9
20210304194128 29 10 11.0 14.0 0.00 0.00 0.00 74 1009.9
20210304193629 30 10 4.0 18.0 0.00 0.00 0.00 72 1010.0
20210304193243 30 10 9.0 15.0 0.00 0.00 0.00 71 1010.1
20210304193044 30 10 3.0 11.0 0.00 0.00 0.00 71 1010.0
20210304192623 29 10 8.0 13.0 0.00 0.00 0.00 72 1009.9
20210304191632 29 10 3.0 18.0 0.00 0.00 0.00 70 1010.0
20210304191128 30 10 7.0 16.0 0.00 0.00 0.00 70 1009.9
20210304190627 30 10 9.0 19.0 0.00 0.00 0.00 68 1010.1